Tracking 18840 objects as of 19-November-2017
HD Live streaming from Space Station
objects crossing your sky now

NOAA 1

Track NOAA 1 now!
10-day predictions
NOAA 1 is classified as:


NORAD ID: 4793
Int'l Code: 1970-106A
Perigee: 1,430.3 km
Apogee: 1,479.7 km
Inclination: 101.8 °
Period: 114.8 minutes
Semi major axis: 7826 km
RCS: 3.071 m2 (large)
Launch date: December 11, 1970
Source: United States (US)
Launch site: AIR FORCE WESTERN TEST RANGE (AFWTR)
aabbcc
Your satellite tracking list
Your tracking list is empty




NASA's NSSDC Master Catalog

Two Line Element Set (TLE):
1 04793U 70106A   17323.25858560 -.00000029  00000-0  10227-3 0  9999
2 04793 101.7839  27.4888 0031560 319.1697  83.8321 12.53982906148599
Source of the keplerian elements: AFSPC